CONSULTA PERSONALIZADA Alfaro
      Predicción AEMET      
Valores extremos - medios de hoy
Fecha T (C) P (l/m2) Hr (%) Rs (W/m2) VV (km/h) DV Tint.(C)
Max Med Min Acu Med Med Max Med Max Med Min
 08-07-2020   30,7   20,5   15,6   0,0   60   282   22,3   253   30,6   27,5   25,2 
Datos de hoy
Fecha T (C) P (l/m2) Hr (%) Rs (W/m2) VV (km/h) DV Tint.(C)
Max Med Min Acu Med Med Max Med Max Med Min
 08-07-2020 16:30:00   30,7   30,3   29,8   0,0   30   849   16,6   155   29,4   29,3   29,1 
 08-07-2020 16:15:00   30,4   29,7   29,1   0,0   31   673   15,8   148   29,1   29,0   28,9 
 08-07-2020 16:00:00   30,2   29,9   29,4   0,0   30   815   17,3   152   28,9   28,7   28,6 
 08-07-2020 15:45:00   30,3   29,8   29,1   0,0   29   927   18,4   142   28,6   28,5   28,3 
 08-07-2020 15:30:00   29,6   29,2   28,9   0,0   29   954   15,1   178   28,3   28,2   28,1 
 08-07-2020 15:15:00   29,4   28,6   28,0   0,0   32   982   14,8   157   28,1   27,9   27,8 
 08-07-2020 15:00:00   28,3   27,8   27,2   0,0   35   723   13,0   207   27,8   27,7   27,6 
 08-07-2020 14:45:00   27,9   27,6   27,0   0,0   37   677   14,0   217   27,6   27,5   27,4 
 08-07-2020 14:30:00   27,5   26,5   25,5   0,0   40   592   16,6   239   27,4   27,3   27,2 
 08-07-2020 14:15:00   26,6   26,1   25,5   0,0   41   392   22,3   243   27,3   27,2   27,1 
 08-07-2020 14:00:00   27,0   26,7   26,1   0,0   39   562   10,1   242   27,1   27,1   27,0 
 08-07-2020 13:45:00   26,6   26,2   25,6   0,0   40   715   9,7   75   27,0   26,9   26,8 
 08-07-2020 13:30:00   25,6   24,7   24,2   0,0   44   633   11,9   323   26,8   26,7   26,6 
 08-07-2020 13:15:00   24,9   24,5   24,3   0,0   44   623   14,0   216   26,6   26,5   26,4 
 08-07-2020 13:00:00   24,5   23,8   23,2   0,0   46   501   14,0   112   26,4   26,4   26,3 
 08-07-2020 12:45:00   23,6   23,1   22,8   0,0   49   349   16,6   87   26,3   26,3   26,2 
 08-07-2020 12:30:00   23,3   22,9   22,5   0,0   51   444   18,4   66   26,2   26,1   26,1 
 08-07-2020 12:15:00   23,6   22,7   22,2   0,0   51   756   19,8   78   26,1   26,0   25,9 
 08-07-2020 12:00:00   22,7   22,4   22,0   0,0   53   702   20,5   75   26,1   26,0   25,9 
 08-07-2020 11:45:00   23,1   22,2   21,4   0,0   54   720   13,3   145   25,9   25,8   25,8 
 08-07-2020 11:30:00   22,3   21,2   20,6   0,0   59   789   16,6   241   25,8   25,7   25,7 
 08-07-2020 11:15:00   20,9   20,2   19,6   0,0   61   556   16,2   237   25,7   25,7   25,6 
 08-07-2020 11:00:00   20,0   19,7   19,4   0,0   63   290   14,0   244   25,6   25,6   25,6 
 08-07-2020 10:45:00   19,7   19,5   19,2   0,0   63   261   9,7   281   25,6   25,6   25,6 
 08-07-2020 10:30:00   19,5   19,2   18,9   0,0   66   279   11,9   17   25,6   25,5   25,3 
 08-07-2020 10:15:00   18,9   18,7   18,5   0,0   69   251   14,4   53   25,6   25,5   25,2 
 08-07-2020 10:00:00   19,0   18,7   18,3   0,0   71   310   13,7   43   25,6   25,5   25,5 
 08-07-2020 09:45:00   19,1   18,7   18,3   0,0   70   347   16,9   20   25,7   25,6   25,5 
 08-07-2020 09:30:00   19,5   18,7   17,8   0,0   71   488   15,1   354   25,7   25,6   25,6 
 08-07-2020 09:15:00   18,0   17,7   17,5   0,0   73   383   10,1   312   25,7   25,6   25,6 
 08-07-2020 09:00:00   17,6   17,3   17,1   0,0   74   324   7,9   334   25,7   25,7   25,6 
 08-07-2020 08:45:00   17,7   17,0   16,6   0,0   75   287   9,0   335   25,9   25,8   25,7 
 08-07-2020 08:30:00   16,9   16,6   16,4   0,0   77   223   8,3   300   25,9   25,9   25,8 
 08-07-2020 08:15:00   16,5   16,3   16,2   0,0   77   176   7,6   338   26,0   25,9   25,9 
 08-07-2020 08:00:00   16,2   16,1   16,0   0,0   77   134   9,4   333   26,0   26,0   26,0 
 08-07-2020 07:45:00   16,2   16,1   16,0   0,0   76   97   11,9   346   26,2   26,1   26,0 
 08-07-2020 07:30:00   16,4   16,2   16,1   0,0   76   63   11,2   345   26,4   26,2   26,1 
 08-07-2020 07:15:00   16,4   16,2   16,0   0,0   75   36   12,6   321   26,5   26,5   26,4 
 08-07-2020 07:00:00   16,2   16,1   16,0   0,0   74   16   11,9   320   26,7   26,6   26,5 
 08-07-2020 06:45:00   16,1   16,0   15,9   0,0   75   3   11,5   336   26,8   26,7   26,7 
 08-07-2020 06:30:00   16,0   15,8   15,7   0,0   77   0   9,7   341   26,9   26,9   26,8 
 08-07-2020 06:15:00   16,4   16,0   15,6   0,0   75   0   9,0   340   27,0   27,0   26,9 
 08-07-2020 06:00:00   17,2   16,7   16,4   0,0   70   0   11,5   306   27,2   27,1   27,0 
 08-07-2020 05:45:00   17,2   17,0   16,8   0,0   70   0   12,6   293   27,3   27,2   27,2 
 08-07-2020 05:30:00   17,0   16,9   16,7   0,0   71   0   14,4   292   27,6   27,4   27,3 
 08-07-2020 05:15:00   17,0   16,9   16,8   0,0   71   0   12,2   302   27,7   27,6   27,5 
 08-07-2020 05:00:00   17,0   16,9   16,8   0,0   71   0   13,0   301   27,9   27,8   27,7 
 08-07-2020 04:45:00   17,2   17,0   16,9   0,0   70   0   12,2   313   28,1   28,0   27,9 
 08-07-2020 04:30:00   17,2   17,2   17,1   0,0   69   0   13,0   322   28,2   28,1   28,0 
 08-07-2020 04:15:00   17,7   17,5   17,2   0,0   67   0   12,6   331   28,2   28,2   28,2 
 08-07-2020 04:00:00   18,0   17,8   17,7   0,0   65   0   16,2   334   28,4   28,3   28,2 
 08-07-2020 03:45:00   18,0   17,8   17,7   0,0   65   0   17,6   323   28,6   28,5   28,4 
 08-07-2020 03:30:00   18,2   18,0   17,8   0,0   65   0   18,4   322   28,8   28,7   28,6 
 08-07-2020 03:15:00   18,6   18,4   18,2   0,0   64   0   15,1   315   29,0   28,9   28,8 
 08-07-2020 03:00:00   18,5   18,4   18,4   0,0   64   0   12,2   312   29,2   29,1   29,0 
 08-07-2020 02:45:00   18,6   18,5   18,4   0,0   65   0   14,4   312   29,4   29,3   29,2 
 08-07-2020 02:30:00   18,8   18,7   18,6   0,0   65   0   15,1   308   29,5   29,4   29,3 
 08-07-2020 02:15:00   19,2   19,0   18,8   0,0   65   0   16,2   311   29,6   29,6   29,5 
 08-07-2020 02:00:00   19,4   19,3   19,2   0,0   63   0   17,3   318   29,6   29,6   29,5 
 08-07-2020 01:45:00   19,7   19,5   19,4   0,0   63   0   20,2   324   29,7   29,7   29,5 
 08-07-2020 01:30:00   20,0   19,8   19,7   0,0   62   0   19,4   323   29,9   29,8   29,7 
 08-07-2020 01:15:00   20,2   20,0   19,9   0,0   61   0   19,8   323   30,1   29,9   29,8 
 08-07-2020 01:00:00   20,1   20,1   20,0   0,0   61   0   22,3   315   30,3   30,2   30,1 
 08-07-2020 00:45:00   20,3   20,2   20,1   0,0   61   0   19,4   317   30,3   30,3   30,2 
 08-07-2020 00:30:00   20,4   20,3   20,2   0,0   61   0   20,2   322   30,3   30,3   30,3 
 08-07-2020 00:15:00   20,6   20,5   20,3   0,0   61   0   18,4   324   30,6   30,5   30,3 
 08-07-2020 00:00:00   20,9   20,7   20,5   0,0   61   0   18,4   318   30,6   30,6   30,6 
Datos diarios
Fecha desde Fecha hasta       Visualizar         Exportar Excel  
     
Alfaro - Fecha desde: 01-07-2020 - Fecha hasta: 07-07-2020
Fecha T (C) P (l/m2) Hr (%) Rs (W/m2) VV (km/h) DV Tint.(C)
Max Med Min Acu Med Med Max Med Max Med Min
 07-07-2020   28,9   20,1   12,7   0,0   53   385   35,6   262   31,1   26,2   22,3 
 06-07-2020   26,2   21,4   17,1   0,0   59   349   43,6   328   32,7   28,7   26,5 
 05-07-2020   32,7   23,9   17,0   0,0   45   377   50,4   270   32,9   29,0   25,3 
 04-07-2020   29,3   20,2   12,4   0,0   49   393   42,5   264   30,1   25,6   21,7 
 03-07-2020   23,3   18,5   15,1   0,0   58   370   43,9   304   27,8   25,6   23,2 
 02-07-2020   26,3   20,4   17,1   0,0   65   333   47,2   295   32,5   28,6   26,4 
 01-07-2020   31,2   24,1   19,7   0,0   64   337   49,7   244   33,5   31,1   28,6 
Datos mensuales
        Exportar      
   
Alfaro
Fecha T (C) P (l/m2) Hr (%) Rs (W/m2) VV (km/h) DV Tint.(C)
Max Med Min Acu Med Med Max Med Max Med Min
 Julio -2020   32,7   21,2   12,4   0,0   56   363   50,4   281   33,5   27,8   21,7 
 Junio -2020   35,1   19,3   8,9   29,0   64   289   59,0   236   37,0   25,9   17,0 
 Mayo -2020   32,0   18,7   9,7   47,7   62   293   67,7   225   35,2   25,3   15,2 
 Abril -2020   22,8   13,9   4,3   93,5   74   198   59,0   189   29,8   22,7   16,4 
 Marzo -2020   22,9   10,4   0,5   89,5   70   171   93,2   231   29,9   21,8   15,6 
 Febrero -2020   20,6   10,7   0,3   1,8   71   141   61,6   234   28,0   22,0   15,4 
 Enero -2020   17,9   5,9   -2,3   15,7   83   69   58,3   218   26,4   17,1   10,9 
 Diciembre -2019   20,7   8,6   -1,0   11,4   78   68   100,8   240   24,0   19,3   13,4 
 Noviembre -2019   20,7   9,8   2,2   43,8   77   78   75,2   231   26,7   15,6   6,4 
 Octubre -2019   27,8   16,5   7,1   21,2   67   150   58,0   225   30,3   21,0   12,1 
 Septiembre-2019   29,3   19,7   10,4   20,6   60   226   61,6   245   33,4   24,9   18,0 
 Agosto -2019   36,1   23,6   13,8   10,9   55   284   63,7   224   37,7   29,8   21,1 
PARÁMETROS
Desc. Abr. Descripción
T Temperatura del aire
P Precipitación acumulada
Hr Humedad relativa del aire
Rs Radiación solar
VV Velocidad del viento
DV Dirección del viento
Tint Temperatura interior
 
FUNCIONES
Desc. Abr. Descripción
Max Máxima
Med Media
Min Mínima
Acu Acumulado